Location: Lafig�re
(44.4503°N, 4.0357°E)
Time: 09:18:44
(UTC+00:00)

SR - Visible Passes

Search period start: 24 January 2021 00:00
Search period end: 03 February 2021 00:00
Orbit: 575 x 880 km, 66.7° (Epoch: 23 January)

Date Brightness Start Highest point End Pass type
(mag) Time Alt. Az. Time Alt. Az. Time Alt. Az.
24 Jan ? 03:50:43 27° ENE 03:50:43 27° ENE 03:53:23 10° NE visible
24 Jan ? 05:30:09 31° WNW 05:30:46 31° NW 05:35:29 10° NNE visible
25 Jan ? 03:02:47 10° ENE 03:02:47 10° ENE 03:02:52 10° ENE visible
25 Jan ? 04:42:13 41° N 04:42:13 41° N 04:45:56 10° NNE visible
25 Jan ? 06:21:38 10° WNW 06:24:07 14° NNW 06:26:47 10° N visible
26 Jan ? 03:54:08 23° NE 03:54:08 23° NE 03:56:11 10° NE visible
26 Jan ? 05:33:34 21° NW 05:33:42 21° NW 05:37:41 10° N visible
27 Jan ? 03:05:59 11° NE 03:05:59 11° NE 03:06:08 10° NE visible
27 Jan ? 04:45:24 26° N 04:45:24 26° N 04:48:18 10° NNE visible
28 Jan ? 03:57:10 19° NNE 03:57:10 19° NNE 03:58:43 10° NNE visible
28 Jan ? 05:36:34 14° NNW 05:36:47 14° NNW 05:39:40 10° N visible
29 Jan ? 03:08:52 10° NE 03:08:52 10° NE 03:08:56 10° NE visible
29 Jan ? 04:48:17 18° N 04:48:17 18° N 04:50:32 10° N visible
30 Jan ? 03:59:56 16° NNE 03:59:56 16° NNE 04:01:07 10° NNE visible
30 Jan ? 05:39:20 10° NNW 05:40:02 10° NNW 05:40:52 10° NNW visible
31 Jan ? 04:50:57 14° NNW 04:50:57 14° NNW 04:52:33 10° N visible
01 Feb ? 04:02:32 13° N 04:02:32 13° N 04:03:21 10° NNE visible
02 Feb ? 04:53:29 11° NNW 04:53:29 11° NNW 04:54:02 10° N visible
